When you browse on this site, cookies collect data to enhance your experience and personalize the content and advertising you see.
Visit our Privacy Policy to learn more. By continuing to use the site, you agree to this use of cookies and data.
  • In Austria
  • List of Countries
  • For 7 days
  • Water Temperature
  • Weather Map
  • News
  • Weather Widgets
  • user-avatar
    Login

    Hourly Weather Tezontepec

    Today, 15 November, Friday

    Time Temperature Precipitation Wind Pressure Humidity
    00:00 +11°C° 0 mm 3 mps 578 mmHg 83%
    01:00 +12°C° 0 mm 2 mps 578 mmHg 84%
    02:00 +12°C° 0 mm 2 mps 578 mmHg 85%
    03:00 +12°C° 0 mm 2 mps 578 mmHg 86%
    04:00 +12°C° 0 mm 2 mps 579 mmHg 87%
    05:00 +12°C° 0 mm 2 mps 579 mmHg 87%
    06:00 +12°C° 0 mm 2 mps 579 mmHg 85%
    07:00 +12°C° 0 mm 2 mps 580 mmHg 83%
    08:00 +13°C° 0 mm 2 mps 580 mmHg 81%
    09:00 +14°C° 0 mm 2 mps 581 mmHg 75%
    10:00 +15°C° 0 mm 2 mps 581 mmHg 68%
    11:00 +16°C° 0 mm 2 mps 581 mmHg 62%
    12:00 +16°C° 0 mm 2 mps 581 mmHg 63%
    13:00 +16°C° 0 mm 2 mps 580 mmHg 64%
    14:00 +16°C° 0 mm 3 mps 579 mmHg 65%
    15:00 +14°C° 0 mm 3 mps 579 mmHg 69%
    16:00 +13°C° 0 mm 3 mps 579 mmHg 74%
    17:00 +12°C° 0 mm 3 mps 578 mmHg 79%
    18:00 +12°C° 0 mm 3 mps 578 mmHg 80%
    19:00 +12°C° 0 mm 2 mps 579 mmHg 82%
    20:00 +10°C° 0 mm 2 mps 579 mmHg 84%
    21:00 +10°C° 0 mm 2 mps 579 mmHg 85%
    22:00 +11°C° 0 mm 1 mps 578 mmHg 85%
    23:00 +11°C° 0 mm 1 mps 578 mmHg 86%

    Tomorrow, 16 November, Saturday

    Time Temperature Precipitation Wind Pressure Humidity
    00:00 +11°C° 0 mm 1 mps 578 mmHg 86%
    01:00 +11°C° 0 mm 1 mps 577 mmHg 86%
    02:00 +11°C° 0 mm 1 mps 577 mmHg 86%
    03:00 +11°C° 0 mm 1 mps 577 mmHg 86%
    04:00 +10°C° 0 mm 0 mps 577 mmHg 86%
    05:00 +10°C° 0 mm 0 mps 577 mmHg 87%
    06:00 +11°C° 0 mm 0 mps 578 mmHg 83%
    07:00 +12°C° 0 mm 0 mps 578 mmHg 80%
    08:00 +12°C° 0 mm 0 mps 579 mmHg 77%
    09:00 +15°C° 0 mm 1 mps 579 mmHg 70%
    10:00 +18°C° 0 mm 1 mps 580 mmHg 64%
    11:00 +19°C° 0 mm 1 mps 580 mmHg 57%
    12:00 +20°C° 0 mm 1 mps 580 mmHg 55%
    13:00 +19°C° 0 mm 2 mps 579 mmHg 52%
    14:00 +20°C° 0 mm 2 mps 579 mmHg 50%
    15:00 +19°C° 0.2 mm 2 mps 579 mmHg 57%
    16:00 +18°C° 0.2 mm 2 mps 578 mmHg 64%
    17:00 +16°C° 0.2 mm 3 mps 578 mmHg 71%
    18:00 +16°C° 0.1 mm 2 mps 578 mmHg 75%
    19:00 +15°C° 0.1 mm 2 mps 578 mmHg 79%
    20:00 +14°C° 0.1 mm 1 mps 578 mmHg 83%
    21:00 +14°C° 0 mm 1 mps 577 mmHg 83%
    22:00 +13°C° 0 mm 1 mps 577 mmHg 84%
    23:00 +13°C° 0 mm 1 mps 577 mmHg 85%

    Day after tomorrow, 17 November, Sunday

    Time Temperature Precipitation Wind Pressure Humidity
    00:00 +13°C° 0 mm 1 mps 576 mmHg 86%
    01:00 +11°C° 0 mm 0 mps 576 mmHg 87%
    02:00 +11°C° 0 mm 0 mps 575 mmHg 88%
    03:00 +11°C° 0 mm 0 mps 575 mmHg 89%
    04:00 +11°C° 0 mm 0 mps 575 mmHg 89%
    05:00 +11°C° 0 mm 0 mps 575 mmHg 89%
    06:00 +12°C° 0 mm 0 mps 576 mmHg 83%
    07:00 +13°C° 0 mm 0 mps 577 mmHg 76%
    08:00 +15°C° 0 mm 0 mps 578 mmHg 70%
    09:00 +18°C° 0 mm 1 mps 578 mmHg 64%
    10:00 +19°C° 0 mm 1 mps 578 mmHg 58%
    11:00 +20°C° 0 mm 2 mps 579 mmHg 51%
    12:00 +20°C° 0 mm 2 mps 578 mmHg 49%
    13:00 +20°C° 0 mm 2 mps 578 mmHg 47%
    14:00 +21°C° 0 mm 2 mps 577 mmHg 45%
    15:00 +20°C° 0.1 mm 3 mps 577 mmHg 52%
    16:00 +18°C° 0.1 mm 3 mps 577 mmHg 58%
    17:00 +17°C° 0.1 mm 4 mps 577 mmHg 65%
    18:00 +17°C° 0.2 mm 3 mps 577 mmHg 68%
    19:00 +16°C° 0.2 mm 2 mps 577 mmHg 71%
    20:00 +16°C° 0.2 mm 1 mps 577 mmHg 75%
    21:00 +15°C° 0.1 mm 1 mps 577 mmHg 74%
    22:00 +15°C° 0.1 mm 1 mps 577 mmHg 73%
    23:00 +15°C° 0.1 mm 1 mps 577 mmHg 73%

    18 November, Monday

    Time Temperature Precipitation Wind Pressure Humidity
    00:00 +15°C° 0 mm 1 mps 577 mmHg 74%
    01:00 +14°C° 0 mm 1 mps 576 mmHg 75%
    02:00 +14°C° 0 mm 1 mps 576 mmHg 76%
    03:00 +14°C° 0 mm 1 mps 576 mmHg 77%
    04:00 +13°C° 0 mm 1 mps 576 mmHg 77%
    05:00 +12°C° 0 mm 0 mps 576 mmHg 78%
    06:00 +13°C° 0 mm 0 mps 576 mmHg 73%
    07:00 +14°C° 0 mm 0 mps 577 mmHg 68%
    08:00 +15°C° 0 mm 0 mps 578 mmHg 63%
    09:00 +18°C° 0 mm 1 mps 578 mmHg 58%
    10:00 +20°C° 0 mm 1 mps 578 mmHg 53%
    11:00 +21°C° 0 mm 1 mps 578 mmHg 48%
    12:00 +20°C° 0 mm 2 mps 578 mmHg 47%
    13:00 +21°C° 0 mm 2 mps 578 mmHg 46%
    14:00 +21°C° 0 mm 2 mps 577 mmHg 45%
    15:00 +20°C° 0.1 mm 3 mps 577 mmHg 51%
    16:00 +19°C° 0.1 mm 3 mps 577 mmHg 57%
    17:00 +18°C° 0.1 mm 4 mps 577 mmHg 63%
    18:00 +17°C° 0.1 mm 3 mps 577 mmHg 68%
    19:00 +17°C° 0.1 mm 2 mps 577 mmHg 74%
    20:00 +16°C° 0.1 mm 2 mps 577 mmHg 79%
    21:00 +16°C° 0.1 mm 2 mps 577 mmHg 80%
    22:00 +15°C° 0.1 mm 1 mps 577 mmHg 80%
    23:00 +15°C° 0.1 mm 1 mps 576 mmHg 81%

    19 November, Tuesday

    Time Temperature Precipitation Wind Pressure Humidity
    00:00 +15°C° 0 mm 1 mps 576 mmHg 80%
    01:00 +15°C° 0 mm 1 mps 576 mmHg 80%
    02:00 +13°C° 0 mm 0 mps 576 mmHg 79%
    03:00 +13°C° 0 mm 0 mps 576 mmHg 79%
    04:00 +13°C° 0 mm 0 mps 576 mmHg 79%
    05:00 +13°C° 0 mm 0 mps 576 mmHg 79%
    06:00 +14°C° 0 mm 0 mps 577 mmHg 75%
    07:00 +15°C° 0 mm 0 mps 578 mmHg 71%
    08:00 +16°C° 0 mm 0 mps 578 mmHg 67%
    09:00 +17°C° 0 mm 0 mps 579 mmHg 62%
    10:00 +20°C° 0 mm 1 mps 579 mmHg 56%
    11:00 +22°C° 0 mm 1 mps 579 mmHg 50%
    12:00 +22°C° 0.1 mm 1 mps 579 mmHg 51%
    13:00 +21°C° 0.1 mm 2 mps 578 mmHg 51%
    14:00 +21°C° 0.1 mm 2 mps 578 mmHg 51%
    15:00 +19°C° 0.5 mm 3 mps 577 mmHg 60%
    16:00 +18°C° 0.5 mm 3 mps 577 mmHg 68%
    17:00 +17°C° 0.5 mm 3 mps 576 mmHg 76%
    18:00 +16°C° 0.2 mm 3 mps 577 mmHg 78%
    19:00 +15°C° 0.2 mm 2 mps 577 mmHg 80%
    20:00 +15°C° 0.2 mm 2 mps 577 mmHg 83%
    21:00 +15°C° 0 mm 1 mps 577 mmHg 83%
    22:00 +14°C° 0 mm 1 mps 577 mmHg 84%
    23:00 +14°C° 0 mm 1 mps 576 mmHg 85%

    20 November, Wednesday

    Time Temperature Precipitation Wind Pressure Humidity
    00:00 +14°C° 0 mm 1 mps 576 mmHg 85%
    01:00 +14°C° 0 mm 1 mps 576 mmHg 85%
    02:00 +14°C° 0 mm 1 mps 576 mmHg 86%
    03:00 +14°C° 0 mm 1 mps 576 mmHg 86%
    04:00 +13°C° 0 mm 0 mps 576 mmHg 86%
    05:00 +12°C° 0 mm 0 mps 576 mmHg 86%
    06:00 +13°C° 0 mm 0 mps 577 mmHg 80%
    07:00 +16°C° 0 mm 1 mps 577 mmHg 75%
    08:00 +18°C° 0 mm 1 mps 578 mmHg 69%
    09:00 +19°C° 0 mm 1 mps 578 mmHg 64%
    10:00 +20°C° 0 mm 1 mps 578 mmHg 58%
    11:00 +22°C° 0 mm 1 mps 579 mmHg 53%
    12:00 +22°C° 0 mm 1 mps 578 mmHg 49%
    13:00 +23°C° 0 mm 2 mps 578 mmHg 46%
    14:00 +23°C° 0 mm 2 mps 578 mmHg 43%
    15:00 +21°C° 0 mm 2 mps 578 mmHg 47%
    16:00 +20°C° 0 mm 3 mps 578 mmHg 52%
    17:00 +20°C° 0 mm 3 mps 577 mmHg 56%
    18:00 +19°C° 0.1 mm 3 mps 577 mmHg 61%
    19:00 +18°C° 0.1 mm 2 mps 577 mmHg 66%
    20:00 +17°C° 0.1 mm 2 mps 578 mmHg 72%
    21:00 +18°C° 0 mm 1 mps 577 mmHg 73%
    22:00 +16°C° 0 mm 1 mps 577 mmHg 74%
    23:00 +16°C° 0 mm 1 mps 577 mmHg 75%
    Show more